Regional Weather Roundup
Issued by NWS Newport/Morehead, NC

Current Version | Previous Version | Graphics & Text | Print | Product List | Glossary Off
Versions: 1 2 3 4 5 6 7 8 9 10 11 12 13 14 15 16 17 18 19 20 21 22 23 24 25 26 27 28 29 30 31 32 33 34 35 36 37 38 39 40 41 42 43 44 45 46 47 48 49 50

000
ASUS42 KMHX 311413
RWRMHX
WEATHER ROUNDUP FOR EASTERN NORTH CAROLINA
NATIONAL WEATHER SERVICE NEWPORT/MOREHEAD CITY NC
1000 AM EDT TUE MAY 31 2016

NOTE: "FAIR" INDICATES FEW OR NO CLOUDS BELOW 12,000 FEET
WITH NO SIGNIFICANT WEATHER AND/OR OBSTRUCTIONS TO VISIBILITY

NCZ015>017-031-032-045>047-102-103-311500-
NORTH COAST

CITY           SKY/WX    TMP DP  RH WIND       PRES   REMARKS
EDENTON        CLOUDY   N/A N/A N/A NE3       29.98S
ELIZABETH CITY PTSUNNY   77  70  79 NE7       29.97S
KITTY HAWK     CLOUDY    71  71 100 NE5       29.96S FOG
MANTEO         NOT AVBL

$$

NCZ045>047-081-094-103-104-311500-
CENTRAL COAST

CITY           SKY/WX    TMP DP  RH WIND       PRES   REMARKS
FRISCO         HVY RAIN  72  71  97 NE7       29.96S

$$

NCZ095-097-098-100-101-311500-
SOUTHERN COAST

CITY           SKY/WX    TMP DP  RH WIND       PRES   REMARKS
BEAUFORT       MOSUNNY   80  70  71 E6        29.94S
CEDAR ISLAND   NOT AVBL
JACKSONVILLE   PTSUNNY   77  71  82 NE9       29.93S
PINEY ISLAND   CLOUDY   N/A N/A N/A NE13      29.95R
WILMINGTON     CLOUDY    78  71  79 N12       29.92R


$$

NCZ011>013-027>030-043-044-078>080-089-090>093-098-311500-
COASTAL PLAIN

CITY           SKY/WX    TMP DP  RH WIND       PRES   REMARKS
AHOSKIE        CLOUDY    73  68  85 N5        29.98S
CLINTON        CLOUDY    74  72  93 NE7       29.97R
ELIZABETHTOWN  CLOUDY    73  73  97 N3        29.95R
GOLDSBORO      MOSUNNY   76  76 100 N10       29.95R
GREENVILLE     CLOUDY    73  72  94 N9        29.99R
HAVELOCK       CLOUDY    78  72  81 NE9       29.95S
KENANSVILLE    CLOUDY    72  70  94 CALM      29.97S
KINSTON        CLOUDY    73  70  88 N8        29.97R
NEW BERN       PTSUNNY   77  72  84 NE7       29.96R HAZE
RICHLANDS      PTSUNNY   75  72  90 N7        29.95S
ROCKY MOUNT    PTSUNNY   74  69  85 N8        29.98S
WASHINGTON     CLOUDY    73  70  93 NE6       29.96S
WHITEVILLE     CLOUDY    74  71  89 N3        29.94R

$$

AMZ130-135-150-152-154-156-158-170-250-252-270-ANZ085-086-088-633-658-670-311500-
MARINE OBSERVATIONS

STATION/POSITION TIME  TEMP    WIND        PRES    WAVE   SWELL
                       AIR SEA DIR/SP/G            HT/PER HT/PER
                 (UTC) (F)     (DEG/KT/KT) (MB)    (FT/S) (FT/S)
CHESAPEAKE LIGHT 1300   69     360/  4/  4 1016.0
64 E VA BEACH    1350   65 65  340/  6/  8 1014.8    5/ 8   5/ 8
DUCK             1300   66 59   60/  5/  6 1014.5
2 E DUCK         1311      64                N/A     3/10
OREGON INLET     1300   68 72   10/  6/  8 1014.4
13E OREGON INLT  1400      68                N/A     4/ 8   3/ 8
HATTERAS CG      1300   73 74   50/  3/  8 1014.0
DIAMOND BUOY     1350   79 80  210/ 12/ 14 1013.9    5/ 9   5/ 9
CAPE LOOKOUT     1400   75      60/  9/ 10 1013.5
BEAUFORT LAB     1300   77 75   50/  3/  7 1012.7
30 SE NEW RVR IN 1325      76                N/A     5/ 9
27 SE WRIGHTSVLE 1308   75 76   90/  2/  4 1012.9
5 SE WRIGHTSVLE  NOT AVBL
225 S CAPE HAT   1350   76 76  170/ 10/ 12 1015.3    4/ 8   3/ 8
41 SE CHARLESTON 1350   74 77  320/ 12/ 14 1012.7    4/ 8   3/ 8

$$




USA.gov is the U.S. government's official web portal to all federal, state and local government web resources and services.